Year,Month,Day,Hour,Minute,Value (Times are PST for temperature in C)
2008,09,23,00,00,8.80
2008,09,23,00,01,8.80
2008,09,23,00,02,8.80
2008,09,23,00,03,8.80
2008,09,23,00,04,8.80
2008,09,23,00,05,8.80
2008,09,23,00,06,8.80
2008,09,23,00,07,8.80
2008,09,23,00,08,8.80
2008,09,23,00,09,8.80
2008,09,23,00,10,8.70
2008,09,23,00,11,8.70
2008,09,23,00,12,8.70
2008,09,23,00,13,8.60
2008,09,23,01,02,8.90
2008,09,23,01,03,8.90
2008,09,23,01,04,8.90
2008,09,23,01,05,8.90
2008,09,23,01,06,8.90
2008,09,23,01,07,8.90
2008,09,23,01,08,8.90
2008,09,23,01,09,8.90
2008,09,23,01,10,8.90
2008,09,23,01,11,8.90
2008,09,23,01,12,8.80
2008,09,23,01,13,8.70
2008,09,23,01,14,8.70
2008,09,23,01,15,8.50
2008,09,23,01,16,8.40
2008,09,23,01,17,8.30
2008,09,23,01,18,8.10
2008,09,23,01,19,8.00
2008,09,23,01,20,7.80
2008,09,23,01,21,7.70
2008,09,23,01,22,7.60
2008,09,23,01,23,7.50
2008,09,23,01,24,7.30
2008,09,23,01,25,7.20
2008,09,23,01,26,7.10
2008,09,23,01,27,7.00
2008,09,23,01,28,6.90
2008,09,23,01,29,6.80
2008,09,23,01,30,6.70
2008,09,23,01,31,6.70
2008,09,23,01,32,6.60
2008,09,23,01,33,6.50
2008,09,23,01,34,6.50
2008,09,23,01,35,6.40
2008,09,23,01,36,6.40
2008,09,23,01,37,6.30
2008,09,23,01,38,6.30
2008,09,23,01,39,6.20
2008,09,23,01,40,6.20
2008,09,23,01,41,6.20
2008,09,23,01,42,6.10
2008,09,23,01,43,6.10
2008,09,23,01,44,6.10
2008,09,23,01,45,6.00
2008,09,23,01,46,6.00
2008,09,23,01,47,5.90
2008,09,23,01,48,5.90
2008,09,23,01,49,5.90
2008,09,23,01,50,5.90
2008,09,23,01,51,5.80
2008,09,23,01,52,5.80
2008,09,23,01,53,5.80
2008,09,23,01,54,5.80
2008,09,23,01,55,5.70
2008,09,23,01,56,5.70
2008,09,23,01,57,5.70
2008,09,23,01,58,5.70
2008,09,23,01,59,5.70
2008,09,23,02,00,5.60
2008,09,23,02,01,5.60
2008,09,23,02,02,5.60
2008,09,23,02,03,5.60
2008,09,23,02,04,5.50
2008,09,23,02,05,5.50
2008,09,23,02,06,5.50
2008,09,23,02,07,5.50
2008,09,23,02,08,5.40
2008,09,23,02,09,5.40
2008,09,23,02,10,5.40
2008,09,23,02,11,5.40
2008,09,23,02,12,5.30
2008,09,23,02,13,5.30
2008,09,23,02,14,5.30
2008,09,23,02,15,5.30
2008,09,23,02,16,5.30
2008,09,23,02,17,5.30
2008,09,23,02,18,5.20
2008,09,23,02,19,5.20
2008,09,23,02,20,5.20
2008,09,23,02,21,5.20
2008,09,23,02,22,5.10
2008,09,23,02,23,5.10
2008,09,23,02,24,5.10
2008,09,23,02,25,5.10
2008,09,23,02,26,5.00
2008,09,23,02,27,5.00
2008,09,23,02,28,5.00
2008,09,23,02,29,5.00
2008,09,23,02,30,4.90
2008,09,23,02,31,4.90
2008,09,23,02,32,4.90
2008,09,23,02,33,4.90
2008,09,23,02,34,4.90
2008,09,23,02,35,4.80
2008,09,23,02,36,4.80
2008,09,23,02,37,4.80
2008,09,23,02,38,4.80
2008,09,23,02,39,4.70
2008,09,23,02,40,4.70
2008,09,23,02,41,4.70
2008,09,23,02,42,4.70
2008,09,23,02,43,4.70
2008,09,23,02,44,4.70
2008,09,23,02,45,4.70
2008,09,23,02,46,4.70
2008,09,23,02,47,4.70
2008,09,23,02,48,4.70
2008,09,23,02,49,4.70
2008,09,23,02,50,4.70
2008,09,23,02,51,4.60
2008,09,23,02,52,4.60
2008,09,23,02,53,4.60
2008,09,23,02,54,4.60
2008,09,23,02,55,4.60
2008,09,23,02,56,4.50
2008,09,23,02,57,4.50
2008,09,23,02,58,4.50
2008,09,23,02,59,4.50
2008,09,23,03,00,4.50
2008,09,23,03,01,4.40
2008,09,23,03,02,4.40
2008,09,23,03,03,4.40
2008,09,23,03,04,4.40
2008,09,23,03,05,4.40
2008,09,23,03,06,4.30
2008,09,23,03,07,4.30
2008,09,23,03,08,4.30
2008,09,23,03,09,4.30
2008,09,23,03,10,4.30
2008,09,23,03,11,4.30
2008,09,23,03,12,4.30
2008,09,23,03,13,4.20
2008,09,23,03,14,4.20
2008,09,23,03,15,4.20
2008,09,23,03,16,4.20
2008,09,23,03,17,4.20
2008,09,23,03,18,4.20
2008,09,23,03,19,4.20
2008,09,23,03,20,4.20
2008,09,23,03,21,4.10
2008,09,23,03,22,4.10
2008,09,23,03,23,4.10
2008,09,23,03,24,4.10
2008,09,23,03,25,4.10
2008,09,23,03,26,4.10
2008,09,23,03,27,4.10
2008,09,23,03,28,4.00
2008,09,23,03,29,4.00
2008,09,23,03,30,4.00
2008,09,23,03,31,4.00
2008,09,23,03,32,4.00
2008,09,23,03,33,3.90
2008,09,23,03,34,3.90
2008,09,23,03,35,3.90
2008,09,23,03,36,3.90
2008,09,23,03,37,3.90
2008,09,23,03,38,3.90
2008,09,23,03,39,3.90
2008,09,23,03,40,3.80
2008,09,23,03,41,3.80
2008,09,23,03,42,3.80
2008,09,23,03,43,3.80
2008,09,23,03,44,3.80
2008,09,23,03,45,3.80
2008,09,23,03,46,3.80
2008,09,23,03,47,3.80
2008,09,23,03,48,3.80
2008,09,23,03,49,3.80
2008,09,23,03,50,3.70
2008,09,23,03,51,3.70
2008,09,23,03,52,3.70
2008,09,23,03,53,3.70
2008,09,23,03,54,3.70
2008,09,23,03,55,3.70
2008,09,23,03,56,3.70
2008,09,23,03,57,3.70
2008,09,23,03,58,3.70
2008,09,23,03,59,3.70
2008,09,23,04,00,3.70
2008,09,23,04,01,3.60
2008,09,23,04,02,3.60
2008,09,23,04,03,3.60
2008,09,23,04,04,3.60
2008,09,23,04,05,3.60
2008,09,23,04,06,3.60
2008,09,23,04,07,3.60
2008,09,23,04,08,3.60
2008,09,23,04,09,3.60
2008,09,23,04,10,3.60
2008,09,23,04,11,3.60
2008,09,23,04,12,3.50
2008,09,23,04,13,3.50
2008,09,23,04,14,3.50
2008,09,23,04,15,3.50
2008,09,23,04,16,3.50
2008,09,23,04,17,3.50
2008,09,23,04,18,3.50
2008,09,23,04,19,3.50
2008,09,23,04,20,3.50
2008,09,23,04,21,3.50
2008,09,23,04,22,3.50
2008,09,23,04,23,3.50
2008,09,23,04,24,3.50
2008,09,23,04,25,3.40
2008,09,23,04,26,3.40
2008,09,23,04,27,3.40
2008,09,23,04,28,3.40
2008,09,23,04,29,3.40
2008,09,23,04,30,3.40
2008,09,23,04,31,3.40
2008,09,23,04,32,3.40
2008,09,23,04,33,3.30
2008,09,23,04,34,3.30
2008,09,23,04,35,3.30
2008,09,23,04,36,3.30
2008,09,23,04,37,3.30
2008,09,23,04,38,3.30
2008,09,23,04,39,3.30
2008,09,23,04,40,3.30
2008,09,23,04,41,3.30
2008,09,23,04,42,3.30
2008,09,23,04,43,3.30
2008,09,23,04,44,3.20
2008,09,23,04,45,3.20
2008,09,23,04,46,3.20
2008,09,23,04,47,3.20
2008,09,23,04,48,3.20
2008,09,23,04,49,3.20
2008,09,23,04,50,3.20
2008,09,23,04,51,3.20
2008,09,23,04,52,3.20
2008,09,23,04,53,3.20
2008,09,23,04,54,3.20
2008,09,23,04,55,3.20
2008,09,23,04,56,3.20
2008,09,23,04,57,3.20
2008,09,23,04,58,3.20
2008,09,23,04,59,3.20
2008,09,23,05,00,3.20
2008,09,23,05,01,3.20
2008,09,23,05,02,3.20
2008,09,23,05,03,3.20
2008,09,23,05,04,3.20
2008,09,23,05,05,3.10
2008,09,23,05,06,3.10
2008,09,23,05,07,3.10
2008,09,23,05,08,3.10
2008,09,23,05,09,3.10
2008,09,23,05,10,3.10
2008,09,23,05,11,3.00
2008,09,23,05,12,3.00
2008,09,23,05,13,3.00
2008,09,23,05,14,2.90
2008,09,23,05,15,2.90
2008,09,23,05,16,2.90
2008,09,23,05,17,2.90
2008,09,23,05,18,2.80
2008,09,23,05,19,2.80
2008,09,23,05,20,2.80
2008,09,23,05,21,2.80
2008,09,23,05,22,2.70
2008,09,23,05,23,2.70
2008,09,23,05,24,2.70
2008,09,23,05,25,2.70
2008,09,23,05,26,2.70
2008,09,23,05,27,2.70
2008,09,23,05,28,2.70
2008,09,23,05,29,2.70
2008,09,23,05,30,2.70
2008,09,23,05,31,2.80
2008,09,23,05,32,2.80
2008,09,23,05,33,2.80
2008,09,23,05,34,2.80
2008,09,23,05,35,2.80
2008,09,23,05,36,2.80
2008,09,23,05,37,2.80
2008,09,23,05,38,2.80
2008,09,23,05,39,2.80
2008,09,23,05,40,2.70
2008,09,23,05,41,2.70
2008,09,23,05,42,2.70
2008,09,23,05,43,2.70
2008,09,23,05,44,2.60
2008,09,23,05,45,2.60
2008,09,23,05,46,2.60
2008,09,23,05,47,2.60
2008,09,23,05,48,2.70
2008,09,23,05,49,2.70
2008,09,23,05,50,2.70
2008,09,23,05,51,2.60
2008,09,23,05,52,2.60
2008,09,23,05,53,2.60
2008,09,23,05,54,2.60
2008,09,23,05,55,2.60
2008,09,23,05,56,2.60
2008,09,23,05,57,2.60
2008,09,23,05,58,2.60
2008,09,23,05,59,2.60
2008,09,23,06,00,2.60
2008,09,23,06,01,2.60
2008,09,23,06,02,2.60
2008,09,23,06,03,2.60
2008,09,23,06,04,2.60
2008,09,23,06,05,2.50
2008,09,23,06,06,2.50
2008,09,23,06,07,2.50
2008,09,23,06,08,2.50
2008,09,23,06,09,2.50
2008,09,23,06,10,2.50
2008,09,23,06,11,2.50
2008,09,23,06,12,2.50
2008,09,23,06,13,2.50
2008,09,23,06,14,2.50
2008,09,23,06,15,2.60
2008,09,23,06,16,2.60
2008,09,23,06,17,2.60
2008,09,23,06,18,2.60
2008,09,23,06,19,2.60
2008,09,23,06,20,2.60
2008,09,23,06,21,2.60
2008,09,23,06,22,2.60
2008,09,23,06,23,2.60
2008,09,23,06,24,2.70
2008,09,23,06,25,2.70
2008,09,23,06,26,2.70
2008,09,23,06,27,2.60
2008,09,23,06,28,2.60
2008,09,23,06,29,2.60
2008,09,23,06,30,2.60
2008,09,23,06,31,2.60
2008,09,23,06,32,2.60
2008,09,23,06,33,2.60
2008,09,23,06,34,2.60
2008,09,23,06,35,2.60
2008,09,23,06,36,2.60
2008,09,23,06,37,2.60
2008,09,23,06,38,2.60
2008,09,23,06,39,2.60
2008,09,23,06,40,2.60
2008,09,23,06,41,2.60
2008,09,23,06,42,2.50
2008,09,23,06,43,2.50
2008,09,23,06,44,2.50
2008,09,23,06,45,2.50
2008,09,23,06,46,2.50
2008,09,23,06,47,2.50
2008,09,23,06,48,2.40
2008,09,23,06,49,2.40
2008,09,23,06,50,2.40
2008,09,23,06,51,2.40
2008,09,23,06,52,2.40
2008,09,23,06,53,2.40
2008,09,23,06,54,2.30
2008,09,23,06,55,2.30
2008,09,23,06,56,2.30
2008,09,23,06,57,2.30
2008,09,23,06,58,2.30
2008,09,23,06,59,2.40
2008,09,23,07,00,2.40
2008,09,23,07,01,2.40
2008,09,23,07,02,2.40
2008,09,23,07,03,2.40
2008,09,23,07,04,2.40
2008,09,23,07,05,2.40
2008,09,23,07,06,2.40
2008,09,23,07,07,2.40
2008,09,23,07,08,2.40
2008,09,23,07,09,2.40
2008,09,23,07,10,2.40
2008,09,23,07,11,2.40
2008,09,23,07,12,2.40
2008,09,23,07,13,2.30
2008,09,23,07,14,2.30
2008,09,23,07,15,2.30
2008,09,23,07,16,2.30
2008,09,23,07,17,2.30
2008,09,23,07,18,2.30
2008,09,23,07,19,2.40
2008,09,23,07,20,2.40
2008,09,23,07,21,2.40
2008,09,23,07,22,2.40
2008,09,23,07,23,2.40
2008,09,23,07,24,2.40
2008,09,23,07,25,2.40
2008,09,23,07,26,2.40
2008,09,23,07,27,2.50
2008,09,23,07,28,2.50
2008,09,23,07,29,2.50
2008,09,23,07,30,2.50
2008,09,23,07,31,2.50
2008,09,23,07,32,2.50
2008,09,23,07,33,2.60
2008,09,23,07,34,2.60
2008,09,23,07,35,2.60
2008,09,23,07,36,2.60
2008,09,23,07,37,2.60
2008,09,23,07,38,2.70
2008,09,23,07,39,2.70
2008,09,23,07,40,2.80
2008,09,23,07,41,2.80
2008,09,23,07,42,2.80
2008,09,23,07,43,2.90
2008,09,23,07,44,2.90
2008,09,23,07,45,2.90
2008,09,23,07,46,3.00
2008,09,23,07,47,3.00
2008,09,23,07,48,3.10
2008,09,23,07,49,3.10
2008,09,23,07,50,3.10
2008,09,23,07,51,3.10
2008,09,23,07,52,3.20
2008,09,23,07,53,3.20
2008,09,23,07,54,3.20
2008,09,23,07,55,3.20
2008,09,23,07,56,3.20
2008,09,23,07,57,3.30
2008,09,23,07,58,3.30
2008,09,23,07,59,3.30
2008,09,23,08,00,3.30
2008,09,23,08,01,3.30
2008,09,23,08,02,3.30
2008,09,23,08,03,3.40
2008,09,23,08,04,3.40
2008,09,23,08,05,3.40
2008,09,23,08,06,3.40
2008,09,23,08,07,3.40
2008,09,23,08,08,3.40
2008,09,23,08,09,3.40
2008,09,23,08,10,3.50
2008,09,23,08,11,3.50
2008,09,23,08,12,3.50
2008,09,23,08,13,3.60
2008,09,23,08,14,3.60
2008,09,23,08,15,3.60
2008,09,23,08,16,3.60
2008,09,23,08,17,3.70
2008,09,23,08,18,3.70
2008,09,23,08,19,3.70
2008,09,23,08,20,3.80
2008,09,23,08,21,3.80
2008,09,23,08,22,3.90
2008,09,23,08,23,4.00
2008,09,23,08,24,4.00
2008,09,23,08,25,4.10
2008,09,23,08,26,4.20
2008,09,23,08,27,4.30
2008,09,23,08,28,4.30
2008,09,23,08,29,4.40
2008,09,23,08,30,4.50
2008,09,23,08,31,4.60
2008,09,23,08,32,4.70
2008,09,23,08,33,4.80
2008,09,23,08,34,4.80
2008,09,23,08,35,4.90
2008,09,23,08,36,5.00
2008,09,23,08,37,5.10
2008,09,23,08,38,5.10
2008,09,23,08,39,5.20
2008,09,23,08,40,5.20
2008,09,23,08,41,5.30
2008,09,23,08,42,5.40
2008,09,23,08,43,5.50
2008,09,23,08,44,5.60
2008,09,23,08,45,5.70
2008,09,23,08,46,5.80
2008,09,23,08,47,5.80
2008,09,23,08,48,5.90
2008,09,23,08,49,6.10
2008,09,23,08,50,6.20
2008,09,23,08,51,6.30
2008,09,23,08,52,6.40
2008,09,23,08,53,6.60
2008,09,23,08,54,6.70
2008,09,23,08,55,6.80
2008,09,23,08,56,6.90
2008,09,23,08,57,7.00
2008,09,23,08,58,7.20
2008,09,23,08,59,7.20
2008,09,23,09,00,7.40
2008,09,23,09,01,7.50
2008,09,23,09,02,7.60
2008,09,23,09,03,7.70
2008,09,23,09,04,7.90
2008,09,23,09,05,8.00
2008,09,23,09,06,8.10
2008,09,23,09,07,8.20
2008,09,23,09,08,8.20
2008,09,23,09,09,8.30
2008,09,23,09,10,8.40
2008,09,23,09,11,8.40
2008,09,23,09,12,8.50
2008,09,23,09,13,8.60
2008,09,23,09,14,8.70
2008,09,23,09,15,8.90
2008,09,23,09,16,9.00
2008,09,23,09,17,9.20
2008,09,23,09,18,9.30
2008,09,23,09,19,9.40
2008,09,23,09,20,9.60
2008,09,23,09,21,9.60
2008,09,23,09,22,9.70
2008,09,23,09,23,9.80
2008,09,23,09,24,9.90
2008,09,23,09,25,9.90
2008,09,23,09,26,10.00
2008,09,23,09,27,10.10
2008,09,23,09,28,10.10
2008,09,23,09,29,10.10
2008,09,23,09,30,10.10
2008,09,23,09,31,10.20
2008,09,23,09,32,10.20
2008,09,23,09,33,10.30
2008,09,23,09,34,10.30
2008,09,23,09,35,10.30
2008,09,23,09,36,10.40
2008,09,23,09,37,10.40
2008,09,23,09,38,10.50
2008,09,23,09,39,10.50
2008,09,23,09,40,10.60
2008,09,23,09,41,10.60
2008,09,23,09,42,10.70
2008,09,23,09,43,10.70
2008,09,23,09,44,10.80
2008,09,23,09,45,10.90
2008,09,23,09,46,10.90
2008,09,23,09,47,11.00
2008,09,23,09,48,11.10
2008,09,23,09,49,11.20
2008,09,23,09,50,11.20
2008,09,23,09,51,11.20
2008,09,23,09,52,11.20
2008,09,23,09,53,11.20
2008,09,23,09,54,11.20
2008,09,23,09,55,11.20
2008,09,23,09,56,11.30
2008,09,23,09,57,11.30
2008,09,23,09,58,11.30
2008,09,23,09,59,11.30
2008,09,23,10,00,11.30
2008,09,23,10,01,11.30
2008,09,23,10,02,11.30
2008,09,23,10,03,11.40
2008,09,23,10,04,11.40
2008,09,23,10,05,11.50
2008,09,23,10,06,11.60
2008,09,23,10,07,11.60
2008,09,23,10,08,11.60
2008,09,23,10,09,11.60
2008,09,23,10,10,11.60
2008,09,23,10,11,11.70
2008,09,23,10,12,11.70
2008,09,23,10,13,11.80
2008,09,23,10,14,11.90
2008,09,23,10,15,11.90
2008,09,23,10,16,12.00
2008,09,23,10,17,12.10
2008,09,23,10,18,12.10
2008,09,23,10,19,12.20
2008,09,23,10,20,12.20
2008,09,23,10,21,12.30
2008,09,23,10,22,12.30
2008,09,23,10,23,12.30
2008,09,23,10,24,12.40
2008,09,23,10,25,12.50
2008,09,23,10,26,12.60
2008,09,23,10,27,12.50
2008,09,23,10,28,12.40
2008,09,23,10,29,12.40
2008,09,23,10,30,12.30
2008,09,23,10,31,12.30
2008,09,23,10,32,12.20
2008,09,23,10,33,12.10
2008,09,23,10,34,12.10
2008,09,23,10,35,12.20
2008,09,23,10,36,12.20
2008,09,23,10,37,12.20
2008,09,23,10,38,12.30
2008,09,23,10,39,12.40
2008,09,23,10,40,12.40
2008,09,23,10,41,12.40
2008,09,23,10,42,12.40
2008,09,23,10,43,12.40
2008,09,23,10,44,12.40
2008,09,23,10,45,12.40
2008,09,23,10,46,12.50
2008,09,23,10,47,12.50
2008,09,23,10,48,12.40
2008,09,23,10,49,12.40
2008,09,23,10,50,12.30
2008,09,23,10,51,12.30
2008,09,23,10,52,12.30
2008,09,23,10,53,12.20
2008,09,23,10,54,12.20
2008,09,23,10,55,12.20
2008,09,23,10,56,12.20
2008,09,23,10,57,12.20
2008,09,23,10,58,12.20
2008,09,23,10,59,12.30
2008,09,23,11,00,12.30
2008,09,23,11,01,12.30
2008,09,23,11,02,12.30
2008,09,23,11,03,12.40
2008,09,23,11,04,12.40
2008,09,23,11,05,12.40
2008,09,23,11,06,12.50
2008,09,23,11,07,12.60
2008,09,23,11,08,12.60
2008,09,23,11,09,12.80
2008,09,23,11,10,12.80
2008,09,23,11,11,12.90
2008,09,23,11,12,12.90
2008,09,23,11,13,12.80
2008,09,23,11,14,12.80
2008,09,23,11,15,12.80
2008,09,23,11,16,12.80
2008,09,23,11,17,12.80
2008,09,23,11,18,12.90
2008,09,23,11,19,12.90
2008,09,23,11,20,12.90
2008,09,23,11,21,12.90
2008,09,23,11,22,12.90
2008,09,23,11,23,12.90
2008,09,23,11,24,13.00
2008,09,23,11,25,13.00
2008,09,23,11,26,13.00
2008,09,23,11,27,13.00
2008,09,23,11,28,12.90
2008,09,23,11,29,12.90
2008,09,23,11,30,12.90
2008,09,23,11,31,12.90
2008,09,23,11,32,12.90
2008,09,23,11,33,13.00
2008,09,23,11,34,13.00
2008,09,23,11,35,13.10
2008,09,23,11,36,13.10
2008,09,23,11,37,13.20
2008,09,23,11,38,13.20
2008,09,23,11,39,13.30
2008,09,23,11,40,13.30
2008,09,23,11,41,13.30
2008,09,23,11,42,13.40
2008,09,23,11,43,13.40
2008,09,23,11,44,13.50
2008,09,23,11,45,13.50
2008,09,23,11,46,13.40
2008,09,23,11,47,13.40
2008,09,23,11,48,13.40
2008,09,23,11,49,13.40
2008,09,23,11,50,13.40
2008,09,23,11,51,13.40
2008,09,23,11,52,13.40
2008,09,23,11,53,13.40
2008,09,23,11,54,13.30
2008,09,23,11,55,13.30
2008,09,23,11,56,13.30
2008,09,23,11,57,13.20
2008,09,23,11,58,13.20
2008,09,23,11,59,13.20
2008,09,23,12,00,13.30
2008,09,23,12,01,13.40
2008,09,23,12,02,13.40
2008,09,23,12,03,13.40
2008,09,23,12,04,13.40
2008,09,23,12,05,13.40
2008,09,23,12,06,13.50
2008,09,23,12,07,13.60
2008,09,23,12,08,13.70
2008,09,23,12,09,13.70
2008,09,23,12,10,13.80
2008,09,23,12,11,13.80
2008,09,23,12,12,13.90
2008,09,23,12,13,13.80
2008,09,23,12,14,13.80
2008,09,23,12,15,13.80
2008,09,23,12,16,13.80
2008,09,23,12,17,13.80
2008,09,23,12,18,13.80
2008,09,23,12,19,13.70
2008,09,23,12,20,13.80
2008,09,23,12,21,13.90
2008,09,23,12,22,13.90
2008,09,23,12,23,14.00
2008,09,23,12,24,14.00
2008,09,23,12,25,13.90
2008,09,23,12,26,13.90
2008,09,23,12,27,13.90
2008,09,23,12,28,13.80
2008,09,23,12,29,13.70
2008,09,23,12,30,13.50
2008,09,23,12,31,13.40
2008,09,23,12,32,13.40
2008,09,23,12,33,13.30
2008,09,23,12,34,13.20
2008,09,23,12,35,13.10
2008,09,23,12,36,13.10
2008,09,23,12,37,13.10
2008,09,23,12,38,13.10
2008,09,23,12,39,13.20
2008,09,23,12,40,13.30
2008,09,23,12,41,13.50
2008,09,23,12,42,13.60
2008,09,23,12,43,13.70
2008,09,23,12,44,13.80
2008,09,23,12,45,13.80
2008,09,23,12,46,14.00
2008,09,23,12,47,14.10
2008,09,23,12,48,14.10
2008,09,23,12,49,14.10
2008,09,23,12,50,14.30
2008,09,23,12,51,14.30
2008,09,23,12,52,14.40
2008,09,23,12,53,14.40
2008,09,23,12,54,14.40
2008,09,23,12,55,14.40
2008,09,23,12,56,14.50
2008,09,23,12,57,14.40
2008,09,23,12,58,14.30
2008,09,23,12,59,14.20
2008,09,23,13,00,14.20
2008,09,23,13,01,14.20
2008,09,23,13,02,14.30
2008,09,23,13,03,14.30
2008,09,23,13,04,14.30
2008,09,23,13,05,14.30
2008,09,23,13,06,14.40
2008,09,23,13,07,14.50
2008,09,23,13,08,14.60
2008,09,23,13,09,14.70
2008,09,23,13,10,14.70
2008,09,23,13,11,14.70
2008,09,23,13,12,14.60
2008,09,23,13,13,14.70
2008,09,23,13,14,14.70
2008,09,23,13,15,14.70
2008,09,23,13,16,14.70
2008,09,23,13,17,14.70
2008,09,23,13,18,14.70
2008,09,23,13,19,14.70
2008,09,23,13,20,14.70
2008,09,23,13,21,14.80
2008,09,23,13,22,14.80
2008,09,23,13,23,14.70
2008,09,23,13,24,14.70
2008,09,23,13,25,14.60
2008,09,23,13,26,14.50
2008,09,23,13,27,14.40
2008,09,23,13,28,14.50
2008,09,23,13,29,14.60
2008,09,23,13,30,14.60
2008,09,23,13,31,14.60
2008,09,23,13,32,14.50
2008,09,23,13,33,14.40
2008,09,23,13,34,14.40
2008,09,23,13,35,14.40
2008,09,23,13,36,14.50
2008,09,23,13,37,14.50
2008,09,23,13,38,14.60
2008,09,23,13,39,14.70
2008,09,23,13,40,14.80
2008,09,23,13,41,14.80
2008,09,23,13,42,14.90
2008,09,23,13,43,15.00
2008,09,23,13,44,15.00
2008,09,23,13,45,15.00
2008,09,23,13,46,14.90
2008,09,23,13,47,14.90
2008,09,23,13,48,14.90
2008,09,23,13,49,15.00
2008,09,23,13,50,15.00
2008,09,23,13,51,15.00
2008,09,23,13,52,15.00
2008,09,23,13,53,15.00
2008,09,23,13,54,15.00
2008,09,23,13,55,15.00
2008,09,23,13,56,15.00
2008,09,23,13,57,15.00
2008,09,23,13,58,15.00
2008,09,23,13,59,15.00
2008,09,23,14,00,15.00
2008,09,23,14,01,15.00
2008,09,23,14,02,15.00
2008,09,23,14,03,15.00
2008,09,23,14,04,15.00
2008,09,23,14,05,15.00
2008,09,23,14,06,15.00
2008,09,23,14,07,15.00
2008,09,23,14,08,15.00
2008,09,23,14,09,14.90
2008,09,23,14,10,14.90
2008,09,23,14,11,14.80
2008,09,23,14,12,14.80
2008,09,23,14,13,14.80
2008,09,23,14,14,14.80
2008,09,23,14,15,14.80
2008,09,23,14,16,14.90
2008,09,23,14,17,15.00
2008,09,23,14,18,15.00
2008,09,23,14,19,15.00
2008,09,23,14,20,15.00
2008,09,23,14,21,15.10
2008,09,23,14,22,15.20
2008,09,23,14,23,15.10
2008,09,23,14,24,15.00
2008,09,23,14,25,15.00
2008,09,23,14,26,15.00
2008,09,23,14,27,15.00
2008,09,23,14,28,15.00
2008,09,23,14,29,14.90
2008,09,23,14,30,14.80
2008,09,23,14,31,14.80
2008,09,23,14,32,14.70
2008,09,23,14,33,14.80
2008,09,23,14,34,14.90
2008,09,23,14,35,15.00
2008,09,23,14,36,15.00
2008,09,23,14,37,15.00
2008,09,23,14,38,15.00
2008,09,23,14,39,15.00
2008,09,23,14,40,15.00
2008,09,23,14,41,15.00
2008,09,23,14,42,15.00
2008,09,23,14,43,15.10
2008,09,23,14,44,15.20
2008,09,23,14,45,15.20
2008,09,23,14,46,15.20
2008,09,23,14,47,15.20
2008,09,23,14,48,15.20
2008,09,23,14,49,15.20
2008,09,23,14,50,15.10
2008,09,23,14,51,15.00
2008,09,23,14,52,15.00
2008,09,23,14,53,15.00
2008,09,23,14,54,15.00
2008,09,23,14,55,15.00
2008,09,23,14,56,15.00
2008,09,23,14,57,15.00
2008,09,23,14,58,15.00
2008,09,23,14,59,15.00
2008,09,23,15,00,15.00
2008,09,23,15,01,14.90
2008,09,23,15,02,14.90
2008,09,23,15,03,14.90
2008,09,23,15,04,14.90
2008,09,23,15,05,14.90
2008,09,23,15,06,15.00
2008,09,23,15,07,15.00
2008,09,23,15,08,15.00
2008,09,23,15,09,15.00
2008,09,23,15,10,15.00
2008,09,23,15,11,15.00
2008,09,23,15,12,15.00
2008,09,23,15,13,15.00
2008,09,23,15,14,15.00
2008,09,23,15,15,15.00
2008,09,23,15,16,15.00
2008,09,23,15,17,15.00
2008,09,23,15,18,15.10
2008,09,23,15,19,15.00
2008,09,23,15,20,15.00
2008,09,23,15,21,15.00
2008,09,23,15,22,15.00
2008,09,23,15,23,15.00
2008,09,23,15,24,15.00
2008,09,23,15,25,15.00
2008,09,23,15,26,15.00
2008,09,23,15,27,15.00
2008,09,23,15,28,15.00
2008,09,23,15,29,15.00
2008,09,23,15,30,15.00
2008,09,23,15,31,15.00
2008,09,23,15,32,15.00
2008,09,23,15,33,15.00
2008,09,23,15,34,15.00
2008,09,23,15,35,15.00
2008,09,23,15,36,15.00
2008,09,23,15,37,15.00
2008,09,23,15,38,15.00
2008,09,23,15,39,15.00
2008,09,23,15,40,15.00
2008,09,23,15,41,14.90
2008,09,23,15,42,14.90
2008,09,23,15,43,14.90
2008,09,23,15,44,14.80
2008,09,23,15,45,14.80
2008,09,23,15,46,14.80
2008,09,23,15,47,14.80
2008,09,23,15,48,14.80
2008,09,23,15,49,14.80
2008,09,23,15,50,14.80
2008,09,23,15,51,14.80
2008,09,23,15,52,14.70
2008,09,23,15,53,14.70
2008,09,23,15,54,14.70
2008,09,23,15,55,14.70
2008,09,23,15,56,14.70
2008,09,23,15,57,14.70
2008,09,23,15,58,14.60
2008,09,23,15,59,14.60
2008,09,23,16,00,14.60
2008,09,23,16,01,14.60
2008,09,23,16,02,14.60
2008,09,23,16,03,14.60
2008,09,23,16,04,14.60
2008,09,23,16,05,14.60
2008,09,23,16,06,14.60
2008,09,23,16,07,14.50
2008,09,23,16,08,14.50
2008,09,23,16,09,14.40
2008,09,23,16,10,14.40
2008,09,23,16,11,14.40
2008,09,23,16,12,14.40
2008,09,23,16,13,14.40
2008,09,23,16,14,14.40
2008,09,23,16,15,14.40
2008,09,23,16,16,14.40
2008,09,23,16,17,14.30
2008,09,23,16,18,14.30
2008,09,23,16,19,14.30
2008,09,23,16,20,14.30
2008,09,23,16,21,14.30
2008,09,23,16,22,14.30
2008,09,23,16,23,14.30
2008,09,23,16,24,14.40
2008,09,23,16,25,14.40
2008,09,23,16,26,14.50
2008,09,23,16,27,14.60
2008,09,23,16,28,14.60
2008,09,23,16,29,14.60
2008,09,23,16,30,14.70
2008,09,23,16,31,14.70
2008,09,23,16,32,14.70
2008,09,23,16,33,14.70
2008,09,23,16,34,14.70
2008,09,23,16,35,14.70
2008,09,23,16,36,14.70
2008,09,23,16,37,14.80
2008,09,23,16,38,14.80
2008,09,23,16,39,14.80
2008,09,23,16,40,14.80
2008,09,23,16,41,14.80
2008,09,23,16,42,14.90
2008,09,23,16,43,14.90
2008,09,23,16,44,14.90
2008,09,23,16,45,14.90
2008,09,23,16,46,14.80
2008,09,23,16,47,14.80
2008,09,23,16,48,14.70
2008,09,23,16,49,14.70
2008,09,23,16,50,14.60
2008,09,23,16,51,14.60
2008,09,23,16,52,14.50
2008,09,23,16,53,14.50
2008,09,23,16,54,14.50
2008,09,23,16,55,14.50
2008,09,23,16,56,14.50
2008,09,23,16,57,14.60
2008,09,23,16,58,14.60
2008,09,23,16,59,14.60
2008,09,23,17,00,14.60
2008,09,23,17,01,14.60
2008,09,23,17,02,14.60
2008,09,23,17,03,14.60
2008,09,23,17,04,14.60
2008,09,23,17,05,14.60
2008,09,23,17,06,14.50
2008,09,23,17,07,14.40
2008,09,23,17,08,14.40
2008,09,23,17,09,14.40
2008,09,23,17,10,14.40
2008,09,23,17,11,14.30
2008,09,23,17,12,14.30
2008,09,23,17,13,14.30
2008,09,23,17,14,14.30
2008,09,23,17,15,14.30
2008,09,23,17,16,14.30
2008,09,23,17,17,14.30
2008,09,23,17,18,14.30
2008,09,23,17,19,14.30
2008,09,23,17,20,14.40
2008,09,23,17,21,14.40
2008,09,23,17,22,14.40
2008,09,23,17,23,14.40
2008,09,23,17,24,14.40
2008,09,23,17,25,14.40
2008,09,23,17,26,14.40
2008,09,23,17,27,14.40
2008,09,23,17,28,14.40
2008,09,23,17,29,14.30
2008,09,23,17,30,14.30
2008,09,23,17,31,14.30
2008,09,23,17,32,14.30
2008,09,23,17,33,14.30
2008,09,23,17,34,14.30
2008,09,23,17,35,14.30
2008,09,23,17,36,14.30
2008,09,23,17,37,14.30
2008,09,23,17,38,14.20
2008,09,23,17,39,14.20
2008,09,23,17,40,14.20
2008,09,23,17,41,14.20
2008,09,23,17,42,14.20
2008,09,23,17,43,14.20
2008,09,23,17,44,14.20
2008,09,23,17,45,14.20
2008,09,23,17,46,14.20
2008,09,23,17,47,14.20
2008,09,23,17,48,14.20
2008,09,23,17,49,14.20
2008,09,23,17,50,14.20
2008,09,23,17,51,14.20
2008,09,23,17,52,14.20
2008,09,23,17,53,14.20
2008,09,23,17,54,14.20
2008,09,23,17,55,14.20
2008,09,23,17,56,14.20
2008,09,23,17,57,14.20
2008,09,23,17,58,14.20
2008,09,23,17,59,14.20
2008,09,23,18,00,14.20
2008,09,23,18,01,14.20
2008,09,23,18,02,14.10
2008,09,23,18,03,14.10
2008,09,23,18,04,14.10
2008,09,23,18,05,14.10
2008,09,23,18,06,14.10
2008,09,23,18,07,14.10
2008,09,23,18,08,14.10
2008,09,23,18,09,14.10
2008,09,23,18,10,14.00
2008,09,23,18,11,14.00
2008,09,23,18,12,14.00
2008,09,23,18,13,14.00
2008,09,23,18,14,14.00
2008,09,23,18,15,13.90
2008,09,23,18,16,13.90
2008,09,23,18,17,13.90
2008,09,23,18,18,13.90
2008,09,23,18,19,13.90
2008,09,23,18,20,13.90
2008,09,23,18,21,13.90
2008,09,23,18,22,13.90
2008,09,23,18,23,13.90
2008,09,23,18,24,13.90
2008,09,23,18,25,13.90
2008,09,23,18,26,13.90
2008,09,23,18,27,13.80
2008,09,23,18,28,13.80
2008,09,23,18,29,13.80